Flag for U.S.A. Weather past 2 weeks in Cincinnati, Ohio, U.S.A.

Now
53 °F

Passing clouds.


Feels Like: 53 °F
Forecast: 53 / 81 °F
Wind: 3 mph from North

Location: Cincinnati Municipal Airport Lunken Field

Current Time: Jul 25, 2014 at 7:47:43 AM

Latest Report: Jul 25, 2014 at 7:04 AM


Visibility: 10 mi

Pressure: 30.12 "Hg

Humidity: 96%

Dew point: 52 °F

Location of CincinnatiLocation

Historic Weather in Cincinnati — Graph

°F

Cincinnati temperature yesterday

Maximum temperature yesterday: 77 °F (at 3:53 PM)
Minimum temperature yesterday: 59 °F (at 11:53 PM)
Average temperature yesterday: 68 °F

Past Weeks' High & Low Weather Summary

 TemperatureHumidityPressure
High90 °F (Jul 13, 1:53 PM)100% (Jul 11, 4:53 AM)30.22 "Hg (Jul 11, 4:53 AM)
Low52 °F (Jul 16, 4:53 AM)37% (Jul 11, 3:53 PM)29.82 "Hg (Jul 14, 4:53 PM)
Average70 °F77%30.04 "Hg
* Reported Jul 10 6:53 AM — Jul 25 6:53 AM, Cincinnati, Weather by CustomWeather, © 2014

Note: Actual official high and low records may vary slightly from our data, if they occured in-between our weather recording intervals... More about our weather records

Advertising

Cincinnati weather history for previous 24 hours

 ConditionsComfort  
Time TempWeatherWind HumidityBarometerVisibility
6:53 AM
Jul 25
53 °FClear.No wind96%30.11 "Hg10 mi
5:53 AM54 °FClear.3 mph97%30.09 "Hg10 mi
4:53 AM52 °FFog.No wind100%30.07 "Hg4 mi
3:53 AM54 °FClear.No wind100%30.07 "Hg9 mi
2:53 AM56 °FClear.No wind97%30.06 "Hg9 mi
1:53 AM56 °FClear.No wind97%30.06 "Hg10 mi
12:53 AM58 °FClear.No wind93%30.06 "Hg10 mi
11:53 PM
Jul 24
59 °FClear.No wind93%30.07 "Hg10 mi
10:53 PM60 °FClear.No wind93%30.08 "Hg10 mi
9:53 PM64 °FScattered clouds.No wind81%30.05 "Hg10 mi
8:53 PM66 °FSunny.No wind78%30.04 "Hg10 mi
7:53 PM73 °FSunny.3 mph53%30.01 "Hg10 mi
6:53 PM73 °FPassing clouds.6 mph57%30.00 "Hg10 mi
5:53 PM74 °FPartly sunny.12 mph50%30.02 "Hg10 mi
4:53 PM75 °FPassing clouds.6 mph47%30.03 "Hg10 mi
3:53 PM77 °FBroken clouds.9 mph50%30.04 "Hg10 mi
2:53 PM76 °FPartly sunny.13 mph52%30.04 "Hg10 mi
1:53 PM74 °FPartly sunny.9 mph56%30.04 "Hg10 mi
12:53 PM72 °FScattered clouds.13 mph57%30.05 "Hg10 mi
11:53 AM69 °FPartly sunny.12 mph63%30.06 "Hg10 mi
10:53 AM67 °FMore clouds than sun.13 mph73%30.06 "Hg10 mi
9:53 AM65 °FPartly sunny.12 mph76%30.06 "Hg10 mi
8:53 AM65 °FPassing clouds.12 mph76%30.05 "Hg10 mi
7:53 AM63 °FSunny.8 mph78%30.03 "Hg10 mi
Weather by CustomWeather, © 2014

See weather overviewHow to use our weather pages